Oak Harbor, WA

6:26 PM PST on February 24, 2017 (GMT -0800)
Whidbey Island Naval Air Station

Weather History for KNUW - August, 2014

Change the Weather History Date:

Saturday, August 30, 2014

  Actual Average Record
Temperature  
Mean Temperature 60 °F -  
Max Temperature 66 °F 64 °F 72 °F (2005)
Min Temperature 55 °F 49 °F 43 °F (2010)
Degree Days  
Heating Degree Days 4    
Growing Degree Days 10 (Base 50)    
Moisture  
Dew Point 55 °F    
Average Humidity 80    
Maximum Humidity 90    
Minimum Humidity 69    
Precipitation  
Precipitation 0.04 in - - ()
Sea Level Pressure  
Sea Level Pressure 29.93 in    
Wind  
Wind Speed 4 mph (SSW)    
Max Wind Speed 18 mph    
Max Gust Speed 25 mph    
Visibility 10 miles    
Events Rain    
Averages and records for this station are not official NWS values.
T = Trace of Precipitation, MM = Missing Value Source: NWS Daily Summary

Daily Weather History Graph

Daily Weather History Graph

Search for Another Location

Airport or City:

Trip Planner

Search our weather history database for the weather conditions in past years. The results will help you decide how hot, cold, wet, or windy it might be!

Date:

Astronomy

Aug. 30, 2014 Rise Set
Actual Time 6:25 AM PDT 7:55 PM PDT
Civil Twilight 5:52 AM PDT 8:28 PM PDT
Nautical Twilight 5:13 AM PDT 9:07 PM PDT
Astronomical Twilight 4:29 AM PDT 9:50 PM PDT
Moon 11:44 AM PDT (8/30) 10:06 PM PDT (8/30)
Length of Visible Light 14h 35m
Length of Day
13h 30m
Waxing Crescent, 24% of the Moon is Illuminated
Aug 30
Waxing Crescent
Sep 2
First Quarter
Sep 8
Full
Sep 15
Last Quarter
Sep 23
New

Hourly Weather History & Observations

Time (PDT) Temp. Dew Point Humidity Pressure Visibility Wind Dir Wind Speed Gust Speed Precip Events Conditions
12:56 AM 55.9 °F 52.0 °F 87% 29.96 in 10.0 mi Calm Calm - N/A   Mostly Cloudy
1:56 AM 57.0 °F 53.1 °F 87% 29.95 in 10.0 mi Calm Calm - N/A   Overcast
2:56 AM 57.9 °F 53.1 °F 84% 29.95 in 10.0 mi South 3.5 mph - 0.00 in Rain Light Rain
3:56 AM 59.0 °F 55.0 °F 87% 29.95 in 10.0 mi SE 4.6 mph - 0.01 in Rain Light Rain
4:56 AM 59.0 °F 55.9 °F 90% 29.94 in 6.0 mi East 4.6 mph - 0.02 in Rain Light Rain
5:56 AM 59.0 °F 55.9 °F 90% 29.92 in 10.0 mi SSE 3.5 mph - 0.01 in Rain Light Rain
6:56 AM 59.0 °F 55.9 °F 90% 29.93 in 10.0 mi SSE 3.5 mph - 0.00 in   Mostly Cloudy
7:56 AM 60.1 °F 57.0 °F 90% 29.92 in 10.0 mi ENE 3.5 mph - N/A   Mostly Cloudy
8:35 AM 63.0 °F 57.9 °F 84% 29.91 in 10.0 mi ESE 3.5 mph - N/A   Mostly Cloudy
8:56 AM 62.1 °F 57.0 °F 84% 29.92 in 10.0 mi ESE 6.9 mph - N/A   Mostly Cloudy
9:56 AM 64.0 °F 57.9 °F 80% 29.92 in 10.0 mi ESE 4.6 mph - N/A   Overcast
10:19 AM 64.0 °F 57.0 °F 78% 29.91 in 10.0 mi Variable 5.8 mph - N/A   Overcast
10:56 AM 64.9 °F 57.0 °F 75% 29.92 in 10.0 mi SSE 9.2 mph - N/A   Overcast
11:56 AM 64.9 °F 57.0 °F 75% 29.92 in 10.0 mi SSE 8.1 mph - N/A   Overcast
12:56 PM 60.1 °F 55.0 °F 83% 29.92 in 10.0 mi NW 3.5 mph - N/A   Overcast
1:56 PM 63.0 °F 57.0 °F 81% 29.92 in 10.0 mi WNW 5.8 mph - N/A   Overcast
2:56 PM 63.0 °F 57.0 °F 81% 29.92 in 10.0 mi NW 3.5 mph - N/A   Overcast
3:15 PM 64.9 °F 57.0 °F 75% 29.90 in 10.0 mi Variable 4.6 mph - N/A   Overcast
3:56 PM 66.0 °F 57.0 °F 73% 29.91 in 10.0 mi West 5.8 mph - N/A   Mostly Cloudy
4:56 PM 64.0 °F 55.9 °F 75% 29.91 in 10.0 mi WSW 6.9 mph - N/A   Mostly Cloudy
5:56 PM 66.0 °F 55.9 °F 70% 29.91 in 10.0 mi West 3.5 mph - N/A   Mostly Cloudy
6:56 PM 63.0 °F 54.0 °F 72% 29.91 in 10.0 mi WSW 4.6 mph - N/A   Scattered Clouds
7:56 PM 60.1 °F 52.0 °F 75% 29.93 in 10.0 mi SSW 4.6 mph - N/A   Scattered Clouds
8:56 PM 60.1 °F 50.0 °F 69% 29.94 in 10.0 mi West 11.5 mph - N/A   Scattered Clouds
9:56 PM 60.1 °F 51.1 °F 72% 29.95 in 10.0 mi West 18.4 mph 25.3 mph N/A   Scattered Clouds
10:56 PM 59.0 °F 52.0 °F 78% 29.97 in 10.0 mi West 17.3 mph - N/A   Mostly Cloudy
11:56 PM 59.0 °F 52.0 °F 78% 29.98 in 10.0 mi West 15.0 mph - N/A   Mostly Cloudy